This is the latest recevied weather packets stored in our database for station/object DB0FN-10. If no packets are shown the sender has not sent any weather packets the latest 10 day(s).
| Time | Temp. | Humidity | Pressure | Rain* | Wind** | Luminosity | Snow |
|---|---|---|---|---|---|---|---|
| 1777534256 | 11.11° C | 35% | 1025.8 hPa | - | - | - | - |
| 1777533356 | 10.56° C | 35% | 1025.7 hPa | - | - | - | - |
| 1777532456 | 10° C | 36% | 1025.7 hPa | - | - | - | - |
| 1777531555 | 10° C | 35% | 1025.7 hPa | - | - | - | - |
| 1777530655 | 9.44° C | 37% | 1025.5 hPa | - | - | - | - |
| 1777529755 | 8.89° C | 37% | 1025.5 hPa | - | - | - | - |
| 1777528855 | 8.89° C | 38% | 1025.2 hPa | - | - | - | - |
| 1777527955 | 8.33° C | 39% | 1025.4 hPa | - | - | - | - |
| 1777527055 | 8.33° C | 40% | 1025.3 hPa | - | - | - | - |
| 1777526155 | 8.33° C | 40% | 1024.9 hPa | - | - | - | - |
| 1777525255 | 7.78° C | 40% | 1024.9 hPa | - | - | - | - |
| 1777524355 | 8.33° C | 40% | 1025 hPa | - | - | - | - |
| 1777523455 | 7.78° C | 41% | 1025 hPa | - | - | - | - |
| 1777522555 | 7.78° C | 42% | 1024.8 hPa | - | - | - | - |
| 1777521655 | 7.78° C | 41% | 1024.8 hPa | - | - | - | - |
| 1777520755 | 8.33° C | 41% | 1024.6 hPa | - | - | - | - |
| 1777519855 | 8.33° C | 40% | 1024.6 hPa | - | - | - | - |
| 1777518954 | 8.89° C | 40% | 1024.5 hPa | - | - | - | - |
| 1777518055 | 8.89° C | 39% | 1024.6 hPa | - | - | - | - |
| 1777517154 | 8.89° C | 39% | 1024.7 hPa | - | - | - | - |
| 1777516254 | 9.44° C | 38% | 1024.9 hPa | - | - | - | - |
| 1777515354 | 9.44° C | 37% | 1024.8 hPa | - | - | - | - |
| 1777514454 | 9.44° C | 37% | 1024.7 hPa | - | - | - | - |
| 1777513554 | 10° C | 36% | 1024.5 hPa | - | - | - | - |
| 1777512654 | 10° C | 36% | 1024.4 hPa | - | - | - | - |
* Rain since midnight (hover to see other rain measurements)
** Current wind speed in m/s (hover to see current wind gust speed)